Location: Edmonton
(53.5500°N, 113.5000°W)
Time: 07:43:00
(UTC-07:00)

N. Korean satellite - Pass Details

Date: 23 October 2019
Orbit: 456 x 506 km, 97.2° (Epoch: 20 November)

Event Time Altitude Azimuth Distance (km) Brightness Sun altitude
Rises 06:53:58 0° 22° (NNE) 2,565 10.5 -12.8°
Reaches altitude 10° 06:56:16 10° 35° (NE) 1,688 9.8 -12.4°
Maximum altitude 06:59:24 27° 95° (E) 985 9.1 -12.0°
Drops below altitude 10° 07:02:33 10° 154° (SSE) 1,697 9.7 -11.5°
Sets 07:04:52 0° 167° (SSE) 2,582 10.5 -11.2°
